Terminal Aerodrome Forecast
Issued by NWS Denver/Boulder, CO

Home | Current Version | Previous Version | Text Only | Print | Product List | Glossary On
Versions: 1 2 3 4 5 6 7 8 9 10 11 12 13 14 15 16 17 18 19 20 21 22 23 24 25 26 27 28 29 30 31 32 33 34 35 36 37 38 39 40 41 42 43 44 45 46 47 48 49 50
000
FTUS45 KBOU 260623 AAA
TAFDEN
TAF AMD
KDEN 260623Z 2606/2712 36007KT P6SM VCSH SCT060 BKN090
      TEMPO 2606/2609 6SM -SHRA OVC060
     FM260900 VRB06KT P6SM VCSH SCT015 OVC030
      TEMPO 2609/2612 3SM -SHRA BR SCT008 BKN015
     FM261200 11012KT 3SM -SHRA BR SCT005 OVC008
      TEMPO 2612/2616 1SM -SHRA BR OVC005
     FM261800 11014G22KT 3SM -SHRA BR SCT006 OVC010
     FM270000 08010KT 3SM -SHRA BR SCT004 OVC008=

USA.gov is the U.S. government's official web portal to all federal, state and local government web resources and services.